Christchurch Aero AWS, New Zealand

11:10 AM NZDT on December 07, 2016 (GMT +1300)
Christchurch International

Weather History for NZCH - February, 2014

Change the Weather History Date:

Saturday, February 1, 2014

  Actual Average Record
Temperature  
Mean Temperature 62 °F -  
Max Temperature 66 °F 69 °F 91 °F (2008)
Min Temperature 55 °F 52 °F 37 °F (2001)
Degree Days  
Heating Degree Days 4    
Growing Degree Days 12 (Base 50)    
Moisture  
Dew Point 55 °F    
Average Humidity 81    
Maximum Humidity 94    
Minimum Humidity 68    
Precipitation  
Precipitation 0.00 in - - ()
Sea Level Pressure  
Sea Level Pressure 29.96 in    
Wind  
Wind Speed 8 mph ()    
Max Wind Speed 15 mph    
Max Gust Speed 21 mph    
Visibility 6.2 miles    
Events      
Averages and records for this station are not official NWS values.
T = Trace of Precipitation, MM = Missing Value Source: Averaged Metar Reports

Daily Weather History Graph

Daily Weather History Graph

Search for Another Location

Airport or City:

Trip Planner

Search our weather history database for the weather conditions in past years. The results will help you decide how hot, cold, wet, or windy it might be!

Date:

Astronomy

Feb. 01, 2014 Rise Set
Actual Time 6:29 AM NZDT 8:56 PM NZDT
Civil Twilight 5:57 AM NZDT 9:28 PM NZDT
Nautical Twilight 5:17 AM NZDT 10:08 PM NZDT
Astronomical Twilight 4:32 AM NZDT 10:53 PM NZDT
Moon 7:53 AM NZDT (2/1) 9:20 PM NZDT (2/1)
Length of Visible Light 15h 30m
Length of Day
14h 26m
New Moon, 2% of the Moon is Illuminated
Feb 1
New Moon
Feb 7
First Quarter
Feb 15
Full
Feb 23
Last Quarter
Mar 1
New

Hourly Weather History & Observations

Time (NZDT) Temp. Dew Point Humidity Pressure Visibility Wind Dir Wind Speed Gust Speed Precip Events Conditions
12:00 AM 59.0 °F 55.4 °F 88% 30.01 in 6.2 mi East 9.2 mph - N/A   Mostly Cloudy
12:30 AM 59.0 °F 55.4 °F 88% 29.98 in 6.2 mi East 8.1 mph - N/A   Overcast
1:00 AM 59.0 °F 55.4 °F 88% 30.01 in 6.2 mi ENE 10.4 mph - N/A   Overcast
1:30 AM 59.0 °F 55.4 °F 88% 29.98 in 6.2 mi ENE 9.2 mph - N/A   Mostly Cloudy
2:00 AM 59.0 °F 55.4 °F 88% 29.98 in 6.2 mi ENE 15.0 mph - N/A   Overcast
2:30 AM 59.0 °F 55.4 °F 88% 29.98 in 6.2 mi ENE 10.4 mph - N/A   Overcast
3:00 AM 59.0 °F 55.4 °F 88% 29.98 in 6.2 mi ENE 11.5 mph - N/A   Overcast
3:30 AM 59.0 °F 55.4 °F 88% 29.98 in 6.2 mi ENE 9.2 mph - N/A   Overcast
4:00 AM 59.0 °F 55.4 °F 88% 29.95 in 6.2 mi ENE 9.2 mph - N/A   Overcast
4:30 AM 59.0 °F 55.4 °F 88% 29.95 in 6.2 mi East 6.9 mph - N/A   Mostly Cloudy
5:00 AM 59.0 °F 55.4 °F 88% 29.95 in 6.2 mi East 9.2 mph - N/A   Overcast
5:30 AM 59.0 °F 55.4 °F 88% 29.95 in 6.2 mi East 8.1 mph - N/A   Mostly Cloudy
6:00 AM 59.0 °F 55.4 °F 88% 29.95 in 6.2 mi East 8.1 mph - N/A   Overcast
6:30 AM 59.0 °F 55.4 °F 88% 29.95 in 6.2 mi East 8.1 mph - N/A   Overcast
7:00 AM 59.0 °F 55.4 °F 88% 29.95 in 6.2 mi East 6.9 mph - N/A   Overcast
7:30 AM 59.0 °F 55.4 °F 88% 29.95 in 6.2 mi ENE 6.9 mph - N/A   Mostly Cloudy
8:00 AM 59.0 °F 55.4 °F 88% 29.95 in 6.2 mi ENE 6.9 mph - N/A   Mostly Cloudy
8:30 AM 59.0 °F 55.4 °F 88% 29.95 in 6.2 mi East 6.9 mph - N/A   Overcast
9:00 AM 59.0 °F 55.4 °F 88% 29.95 in 6.2 mi East 8.1 mph - N/A   Overcast
9:30 AM 59.0 °F 55.4 °F 88% 29.95 in 6.2 mi East 8.1 mph - N/A   Mostly Cloudy
10:00 AM 59.0 °F 55.4 °F 88% 29.95 in 6.2 mi East 9.2 mph - N/A   Mostly Cloudy
10:30 AM 60.8 °F 55.4 °F 82% 29.95 in 6.2 mi East 10.4 mph - N/A   Overcast
11:00 AM 62.6 °F 55.4 °F 77% 29.95 in 6.2 mi East 10.4 mph - N/A   Overcast
11:30 AM 64.4 °F 55.4 °F 73% 29.95 in 6.2 mi ENE 6.9 mph - N/A   Mostly Cloudy
12:00 PM 64.4 °F 55.4 °F 73% 29.95 in 6.2 mi ENE 6.9 mph - N/A   Mostly Cloudy
12:30 PM 64.4 °F 55.4 °F 73% 29.95 in 6.2 mi NE 6.9 mph - N/A   Overcast
1:00 PM 64.4 °F 55.4 °F 73% 29.95 in 6.2 mi NNE 8.1 mph 20.7 mph N/A   Overcast
1:30 PM 64.4 °F 55.4 °F 73% 29.95 in 6.2 mi NNE 6.9 mph - N/A   Overcast
2:00 PM 64.4 °F 55.4 °F 73% 29.95 in 6.2 mi East 10.4 mph - N/A   Overcast
2:30 PM 64.4 °F 55.4 °F 73% 29.95 in 6.2 mi East 10.4 mph - N/A   Mostly Cloudy
3:00 PM 66.2 °F 55.4 °F 68% 29.92 in 6.2 mi East 9.2 mph - N/A   Overcast
3:30 PM 66.2 °F 55.4 °F 68% 29.92 in 6.2 mi East 9.2 mph - N/A   Mostly Cloudy
4:00 PM 64.4 °F 55.4 °F 73% 29.92 in 6.2 mi East 10.4 mph - N/A   Overcast
4:30 PM 66.2 °F 55.4 °F 68% 29.92 in 6.2 mi East 9.2 mph - N/A   Mostly Cloudy
5:00 PM 66.2 °F 55.4 °F 68% 29.92 in 6.2 mi East 6.9 mph - N/A   Mostly Cloudy
5:30 PM 64.4 °F 55.4 °F 73% 29.92 in 6.2 mi East 10.4 mph - N/A   Mostly Cloudy
6:00 PM 66.2 °F 55.4 °F 68% 29.92 in 6.2 mi East 9.2 mph - N/A   Partly Cloudy
6:30 PM 66.2 °F 55.4 °F 68% 29.92 in 6.2 mi ENE 8.1 mph - N/A   Partly Cloudy
7:00 PM 64.4 °F 55.4 °F 73% 29.92 in 6.2 mi ENE 8.1 mph - N/A   Partly Cloudy
7:30 PM 64.4 °F 55.4 °F 73% 29.92 in 6.2 mi ENE 6.9 mph - N/A   Mostly Cloudy
8:00 PM 62.6 °F 55.4 °F 77% 29.95 in 6.2 mi ENE 4.6 mph - N/A   Mostly Cloudy
8:30 PM 60.8 °F 55.4 °F 82% 29.95 in 6.2 mi ENE 6.9 mph - N/A   Mostly Cloudy
9:00 PM 59.0 °F 53.6 °F 82% 29.98 in 6.2 mi NNE 4.6 mph - N/A   Mostly Cloudy
9:30 PM 59.0 °F 53.6 °F 82% 29.98 in 6.2 mi NE 3.5 mph - N/A   Overcast
10:00 PM 57.2 °F 53.6 °F 88% 30.01 in 6.2 mi NE 3.5 mph - N/A   Mostly Cloudy
10:30 PM 57.2 °F 53.6 °F 88% 30.01 in 6.2 mi NNE 2.3 mph - N/A   Overcast
11:00 PM 57.2 °F 53.6 °F 88% 30.01 in 6.2 mi SW 3.5 mph - N/A   Scattered Clouds
11:30 PM 55.4 °F 53.6 °F 94% 30.04 in 6.2 mi WSW 3.5 mph - N/A   Unknown